TimeCST,TemperatureF,Dew PointF,Humidity,Sea Level PressureIn,VisibilityMPH,Wind Direction,Wind SpeedMPH,Gust SpeedMPH,PrecipitationIn,Events,Conditions,WindDirDegrees,DateUTC
12:55 AM,23.7,23.0,97,30.52,10.0,Calm,Calm,-,N/A,,Clear,0,2013-01-18 06:55:00
1:55 AM,23.2,22.1,96,30.52,10.0,Calm,Calm,-,N/A,,Clear,0,2013-01-18 07:55:00
2:55 AM,22.3,21.6,97,30.52,10.0,Calm,Calm,-,N/A,,Clear,0,2013-01-18 08:55:00
3:55 AM,21.9,21.2,97,30.51,10.0,Calm,Calm,-,N/A,,Clear,0,2013-01-18 09:55:00
4:55 AM,21.2,19.9,95,30.51,10.0,Calm,Calm,-,N/A,,Clear,0,2013-01-18 10:55:00
5:55 AM,21.6,20.7,96,30.51,10.0,South,4.6,-,N/A,,Clear,190,2013-01-18 11:55:00
6:55 AM,21.6,19.4,91,30.50,10.0,South,3.5,-,N/A,,Clear,170,2013-01-18 12:55:00
7:55 AM,24.8,21.6,87,30.51,10.0,South,5.8,-,N/A,,Clear,190,2013-01-18 13:55:00
8:55 AM,30.0,24.8,81,30.51,10.0,South,4.6,-,N/A,,Clear,180,2013-01-18 14:55:00
9:55 AM,34.7,25.0,68,30.49,10.0,Variable,5.8,-,N/A,,Clear,0,2013-01-18 15:55:00
10:55 AM,39.6,24.1,54,30.45,10.0,South,8.1,-,N/A,,Clear,180,2013-01-18 16:55:00
11:55 AM,41.7,25.0,52,30.40,10.0,Variable,5.8,-,N/A,,Clear,0,2013-01-18 17:55:00
12:55 PM,45.0,26.4,48,30.35,10.0,Variable,6.9,-,N/A,,Clear,0,2013-01-18 18:55:00
1:55 PM,47.8,27.1,45,30.32,10.0,South,8.1,-,N/A,,Clear,190,2013-01-18 19:55:00
2:55 PM,49.1,27.3,43,30.27,10.0,South,8.1,-,N/A,,Clear,180,2013-01-18 20:55:00
3:55 PM,48.6,27.5,44,30.25,10.0,South,8.1,16.1,N/A,,Clear,180,2013-01-18 21:55:00
4:55 PM,45.1,28.2,52,30.23,10.0,SSE,9.2,-,N/A,,Clear,150,2013-01-18 22:55:00
5:55 PM,41.4,27.9,59,30.24,10.0,South,9.2,17.3,N/A,,Clear,170,2013-01-18 23:55:00
6:55 PM,39.2,29.5,68,30.24,10.0,South,8.1,-,N/A,,Clear,180,2013-01-19 00:55:00
7:55 PM,37.9,29.8,73,30.23,10.0,South,9.2,-,N/A,,Clear,190,2013-01-19 01:55:00
8:55 PM,37.4,30.0,75,30.21,10.0,South,8.1,-,N/A,,Clear,170,2013-01-19 02:55:00
9:55 PM,38.3,30.0,72,30.18,10.0,Variable,5.8,-,N/A,,Clear,0,2013-01-19 03:55:00
10:55 PM,38.1,30.4,74,30.17,10.0,Variable,5.8,-,N/A,,Clear,0,2013-01-19 04:55:00
11:55 PM,37.6,30.2,75,30.18,10.0,Calm,Calm,-,N/A,,Clear,0,2013-01-19 05:55:00